Weather History for Buffalo, WY

Change the Weather History Date:

Saturday, January 19, 2013

  Actual Average Record
Temperature  
Mean Temperature 34 °F 28 °F  
Max Temperature 43 °F 39 °F 59 °F (2005)
Min Temperature 24 °F 17 °F -3 °F (2012)
Degree Days  
Heating Degree Days 31 37  
Month to date heating degree days 708 709  
Since 1 July heating degree days 3433 3756  
Cooling Degree Days 0 0  
Month to date cooling degree days 0 0  
Year to date cooling degree days 0 0  
Moisture  
Dew Point 15 °F    
Average Humidity 49    
Maximum Humidity 68    
Minimum Humidity 29    
Precipitation  
Precipitation 0.00 in 0.01 in 0.16 in (2011)
Month to date precipitation 0.09 0.23  
Year to date precipitation 0.09 0.23  
Sea Level Pressure  
Sea Level Pressure 30.14 in    
Wind  
Wind Speed 6 mph (SSE)    
Max Wind Speed 20 mph    
Max Gust Speed 28 mph    
Visibility 10 miles    
Events      
T = Trace of Precipitation, MM = Missing Value Source: NWS Daily Summary

Daily Weather History Graph

Daily Weather History Graph

Search for Another Location

Airport:

Trip Planner

Search our weather history database for the weather conditions in past years. The results will help you decide how hot, cold, wet, or windy it might be!

Date:

Astronomy

Jan. 19, 2013 Rise Set
Actual Time 7:36 AM MST 4:59 PM MST
Civil Twilight 7:04 AM MST 5:31 PM MST
Nautical Twilight 6:29 AM MST 6:06 PM MST
Astronomical Twilight 5:54 AM MST 6:41 PM MST
Moon 11:29 AM MST (1/19) 1:10 AM MST (1/19)
Length of Visible Light 10h 26m
Length of Day
9h 22m
First Quarter, 58% of the Moon is Illuminated
Jan 19
First Quarter
Jan 26
Full
Feb 3
Last Quarter
Feb 10
New
Feb 17
First Quarter

Hourly Weather History & Observations

Time (MST) Temp. Windchill Dew Point Humidity Pressure Visibility Wind Dir Wind Speed Gust Speed Precip Events Conditions
12:53 AM 37.9 °F - 15.1 °F 39% 29.99 in 10.0 mi Calm Calm - N/A   Clear
1:53 AM 41.0 °F 32.2 °F 12.0 °F 31% 29.99 in 10.0 mi NNW 18.4 mph 27.6 mph N/A   Clear
2:53 AM 37.0 °F - 12.9 °F 37% 30.05 in 10.0 mi Calm Calm - N/A   Clear
3:53 AM 34.0 °F - 12.0 °F 40% 30.06 in 10.0 mi Calm Calm - N/A   Clear
4:53 AM 36.0 °F 30.3 °F 12.9 °F 39% 30.09 in 10.0 mi SSE 6.9 mph - N/A   Clear
5:53 AM 35.1 °F 32.2 °F 9.0 °F 34% 30.10 in 10.0 mi North 3.5 mph - N/A   Clear
6:53 AM 36.0 °F 31.1 °F 10.0 °F 34% 30.12 in 10.0 mi North 5.8 mph - N/A   Clear
7:53 AM 35.1 °F 30.1 °F 10.0 °F 35% 30.14 in 10.0 mi South 5.8 mph - N/A   Clear
8:53 AM 37.0 °F 34.5 °F 12.9 °F 37% 30.15 in 10.0 mi SSE 3.5 mph - N/A   Clear
9:53 AM 39.9 °F 36.7 °F 16.0 °F 38% 30.15 in 10.0 mi SE 4.6 mph - N/A   Clear
10:53 AM 42.1 °F 37.1 °F 17.1 °F 37% 30.19 in 10.0 mi NNE 8.1 mph - N/A   Clear
11:53 AM 41.0 °F 34.3 °F 17.1 °F 38% 30.18 in 10.0 mi North 11.5 mph - N/A   Clear
12:53 PM 39.9 °F 32.9 °F 18.0 °F 41% 30.19 in 10.0 mi North 11.5 mph 24.2 mph N/A   Clear
1:53 PM 39.0 °F 31.4 °F 19.0 °F 45% 30.18 in 10.0 mi North 12.7 mph 21.9 mph N/A   Clear
2:53 PM 39.0 °F 32.8 °F 19.0 °F 45% 30.20 in 10.0 mi North 9.2 mph - N/A   Clear
3:53 PM 37.9 °F 33.5 °F 21.0 °F 51% 30.21 in 10.0 mi NNE 5.8 mph - N/A   Clear
4:53 PM 33.1 °F - 21.9 °F 64% 30.21 in 10.0 mi Calm Calm - N/A   Clear
5:53 PM 28.0 °F - 18.0 °F 66% 30.21 in 10.0 mi Calm Calm - N/A   Clear
6:53 PM 28.0 °F 22.8 °F 18.0 °F 66% 30.19 in 10.0 mi SSE 4.6 mph - N/A   Clear
7:53 PM 27.0 °F 18.7 °F 18.0 °F 69% 30.19 in 10.0 mi South 8.1 mph - N/A   Clear
8:53 PM 27.0 °F 20.5 °F 18.0 °F 69% 30.16 in 10.0 mi SSW 5.8 mph - N/A   Clear
9:53 PM 27.0 °F 17.3 °F 18.0 °F 69% 30.13 in 10.0 mi South 10.4 mph - N/A   Clear
10:53 PM 26.1 °F 18.4 °F 15.1 °F 63% 30.11 in 10.0 mi SW 6.9 mph - N/A   Clear
11:53 PM 30.9 °F 26.2 °F 9.0 °F 40% 30.09 in 10.0 mi SW 4.6 mph - N/A   Clear